| time (UTC) | temp F | wind direction | speed MPH | gust MPH | rain 1hr in | rain 24hr in | rain mn in | humidity % | barometer mb |
| 20260508004639 | 61 | 0 | 6.0 | 12.0 | 0.00 | 0.00 | 0.00 | 45 | 1012.6 |
| 20260508004138 | 62 | 0 | 8.0 | 18.0 | 0.00 | 0.00 | 0.00 | 45 | 1012.4 |
| 20260508003637 | 62 | 0 | 11.0 | 35.0 | 0.00 | 0.00 | 0.00 | 43 | 1012.4 |
| 20260508003137 | 62 | 0 | 12.0 | 35.0 | 0.00 | 0.00 | 0.00 | 39 | 1011.5 |
| 20260508002638 | 62 | 0 | 10.0 | 20.0 | 0.00 | 0.00 | 0.00 | 43 | 1012.3 |
| 20260508002137 | 62 | 0 | 9.0 | 20.0 | 0.00 | 0.00 | 0.00 | 42 | 1012.4 |
| 20260508001635 | 62 | 0 | 8.0 | 14.0 | 0.00 | 0.00 | 0.00 | 43 | 1012.6 |
| 20260508001136 | 63 | 0 | 9.0 | 17.0 | 0.00 | 0.00 | 0.00 | 42 | 1012.6 |
| 20260508000906 | 63 | 0 | 10.0 | 19.0 | 0.00 | 0.00 | 0.00 | 41 | 1012.6 |
| 20260508000136 | 63 | 0 | 11.0 | 20.0 | 0.00 | 0.00 | 0.00 | 40 | 1012.6 |
| 20260507235636 | 64 | 0 | 11.0 | 20.0 | 0.00 | 0.00 | 0.00 | 39 | 1012.4 |
| 20260507235136 | 64 | 0 | 12.0 | 27.0 | 0.00 | 0.00 | 0.00 | 38 | 1012.4 |
| 20260507234905 | 64 | 0 | 15.0 | 27.0 | 0.00 | 0.00 | 0.00 | 37 | 1012.4 |
| 20260507234135 | 65 | 0 | 14.0 | 28.0 | 0.00 | 0.00 | 0.00 | 36 | 1012.4 |
| 20260507233635 | 65 | 0 | 10.0 | 28.0 | 0.00 | 0.00 | 0.00 | 38 | 1012.3 |
| 20260507233135 | 66 | 0 | 8.0 | 14.0 | 0.00 | 0.00 | 0.00 | 40 | 1012.2 |
| 20260507232637 | 66 | 0 | 7.0 | 13.0 | 0.00 | 0.00 | 0.00 | 39 | 1012.1 |
| 20260507232135 | 66 | 0 | 7.0 | 13.0 | 0.00 | 0.00 | 0.00 | 38 | 1012.1 |
| 20260507231637 | 67 | 0 | 7.0 | 13.0 | 0.00 | 0.00 | 0.00 | 39 | 1012.0 |
| 20260507231409 | 67 | 0 | 7.0 | 12.0 | 0.00 | 0.00 | 0.00 | 37 | 1011.9 |
| 20260507230633 | 67 | 0 | 8.0 | 14.0 | 0.00 | 0.00 | 0.00 | 37 | 1011.7 |
| 20260507230133 | 67 | 0 | 10.0 | 15.0 | 0.00 | 0.00 | 0.00 | 33 | 1011.9 |
| 20260507225633 | 68 | 0 | 9.0 | 15.0 | 0.00 | 0.00 | 0.00 | 32 | 1011.6 |
| 20260507225133 | 68 | 0 | 9.0 | 17.0 | 0.00 | 0.00 | 0.00 | 31 | 1011.6 |
| 20260507224635 | 68 | 0 | 10.0 | 19.0 | 0.00 | 0.00 | 0.00 | 30 | 1011.7 |
| 20260507224133 | 68 | 0 | 11.0 | 20.0 | 0.00 | 0.00 | 0.00 | 31 | 1011.7 |
| 20260507223905 | 70 | 0 | 11.0 | 20.0 | 0.00 | 0.00 | 0.00 | 29 | 1011.6 |
| 20260507223133 | 71 | 0 | 12.0 | 19.0 | 0.00 | 0.00 | 0.00 | 28 | 1011.6 |
| 20260507222633 | 72 | 0 | 13.0 | 23.0 | 0.00 | 0.00 | 0.00 | 29 | 1011.6 |
| 20260507222140 | 72 | 0 | 13.0 | 21.0 | 0.00 | 0.00 | 0.00 | 29 | 1011.6 |
| 20260507222135 | 72 | 0 | 13.0 | 23.0 | 0.00 | 0.00 | 0.00 | 28 | 1011.6 |
| 20260507221133 | 72 | 0 | 12.0 | 22.0 | 0.00 | 0.00 | 0.00 | 30 | 1011.6 |
| 20260507220633 | 72 | 0 | 12.0 | 22.0 | 0.00 | 0.00 | 0.00 | 27 | 1011.6 |
| 20260507220134 | 72 | 0 | 13.0 | 21.0 | 0.00 | 0.00 | 0.00 | 28 | 1011.7 |
| 20260507215634 | 72 | 0 | 14.0 | 23.0 | 0.00 | 0.00 | 0.00 | 28 | 1011.7 |
| 20260507215133 | 71 | 0 | 13.0 | 23.0 | 0.00 | 0.00 | 0.00 | 27 | 1011.7 |
| 20260507214630 | 72 | 0 | 12.0 | 21.0 | 0.00 | 0.00 | 0.00 | 28 | 1011.9 |
| 20260507214130 | 71 | 0 | 11.0 | 21.0 | 0.00 | 0.00 | 0.00 | 28 | 1012.1 |
| 20260507213629 | 72 | 0 | 11.0 | 20.0 | 0.00 | 0.00 | 0.00 | 28 | 1012.0 |
| 20260507213131 | 72 | 0 | 10.0 | 22.0 | 0.00 | 0.00 | 0.00 | 28 | 1012.2 |
| 20260507212630 | 72 | 0 | 7.0 | 22.0 | 0.00 | 0.00 | 0.00 | 30 | 1012.2 |
| 20260507212130 | 71 | 0 | 9.0 | 22.0 | 0.00 | 0.00 | 0.00 | 29 | 1012.4 |
| 20260507211900 | 71 | 0 | 12.0 | 22.0 | 0.00 | 0.00 | 0.00 | 29 | 1012.4 |
| 20260507211129 | 71 | 0 | 13.0 | 26.0 | 0.00 | 0.00 | 0.00 | 29 | 1012.7 |
| 20260507210636 | 71 | 0 | 13.0 | 23.0 | 0.00 | 0.00 | 0.00 | 27 | 1012.8 |
| 20260507210632 | 71 | 0 | 13.0 | 26.0 | 0.00 | 0.00 | 0.00 | 29 | 1012.7 |
| 20260507205628 | 71 | 0 | 11.0 | 22.0 | 0.00 | 0.00 | 0.00 | 27 | 1012.8 |
| 20260507205128 | 72 | 0 | 9.0 | 17.0 | 0.00 | 0.00 | 0.00 | 30 | 1012.9 |
| 20260507204627 | 72 | 0 | 8.0 | 13.0 | 0.00 | 0.00 | 0.00 | 30 | 1012.9 |
| 20260507204128 | 71 | 0 | 8.0 | 13.0 | 0.00 | 0.00 | 0.00 | 31 | 1013.0 |
| 20260507203626 | 71 | 0 | 9.0 | 20.0 | 0.00 | 0.00 | 0.00 | 31 | 1013.0 |
| 20260507203126 | 71 | 0 | 9.0 | 20.0 | 0.00 | 0.00 | 0.00 | 33 | 1013.0 |
| 20260507202625 | 71 | 0 | 10.0 | 20.0 | 0.00 | 0.00 | 0.00 | 28 | 1013.1 |
| 20260507202126 | 71 | 0 | 11.0 | 20.0 | 0.00 | 0.00 | 0.00 | 32 | 1013.2 |
| 20260507201855 | 70 | 0 | 11.0 | 19.0 | 0.00 | 0.00 | 0.00 | 30 | 1013.2 |
| 20260507201125 | 71 | 0 | 12.0 | 19.0 | 0.00 | 0.00 | 0.00 | 31 | 1013.4 |
| 20260507200625 | 71 | 0 | 10.0 | 18.0 | 0.00 | 0.00 | 0.00 | 31 | 1013.4 |
| 20260507200355 | 71 | 0 | 11.0 | 20.0 | 0.00 | 0.00 | 0.00 | 32 | 1013.4 |
| 20260507195626 | 71 | 0 | 11.0 | 20.0 | 0.00 | 0.00 | 0.00 | 29 | 1013.5 |
| 20260507195126 | 71 | 0 | 8.0 | 15.0 | 0.00 | 0.00 | 0.00 | 30 | 1013.6 |
| 20260507194624 | 71 | 0 | 8.0 | 15.0 | 0.00 | 0.00 | 0.00 | 29 | 1013.6 |
| 20260507194124 | 71 | 0 | 9.0 | 15.0 | 0.00 | 0.01 | 0.00 | 33 | 1013.7 |
| 20260507193624 | 70 | 0 | 8.0 | 13.0 | 0.00 | 0.01 | 0.00 | 31 | 1013.7 |
| 20260507193355 | 70 | 0 | 8.0 | 18.0 | 0.00 | 0.01 | 0.00 | 29 | 1013.6 |
| 20260507192623 | 70 | 0 | 8.0 | 18.0 | 0.00 | 0.01 | 0.00 | 31 | 1013.7 |
| 20260507192123 | 70 | 0 | 5.0 | 15.0 | 0.00 | 0.01 | 0.00 | 30 | 1013.7 |
| 20260507191625 | 69 | 0 | 2.0 | 10.0 | 0.00 | 0.01 | 0.00 | 34 | 1013.8 |
| 20260507191124 | 69 | 0 | 2.0 | 6.0 | 0.00 | 0.01 | 0.00 | 37 | 1013.8 |
| 20260507190623 | 69 | 0 | 2.0 | 5.0 | 0.00 | 0.01 | 0.00 | 30 | 1013.9 |
| 20260507190124 | 69 | 0 | 2.0 | 5.0 | 0.00 | 0.01 | 0.00 | 33 | 1013.9 |
| 20260507185621 | 69 | 0 | 2.0 | 6.0 | 0.00 | 0.01 | 0.00 | 35 | 1014.1 |
| 20260507185122 | 68 | 0 | 1.0 | 6.0 | 0.00 | 0.01 | 0.00 | 31 | 1014.1 |
| 20260507184621 | 67 | 0 | 3.0 | 8.0 | 0.00 | 0.01 | 0.00 | 34 | 1014.1 |
| 20260507184121 | 67 | 0 | 6.0 | 9.0 | 0.00 | 0.01 | 0.00 | 35 | 1014.1 |
| 20260507183621 | 66 | 0 | 6.0 | 11.0 | 0.00 | 0.01 | 0.00 | 34 | 1014.2 |
| 20260507183121 | 66 | 0 | 5.0 | 11.0 | 0.00 | 0.01 | 0.00 | 34 | 1014.2 |
| 20260507182622 | 66 | 0 | 4.0 | 9.0 | 0.00 | 0.01 | 0.00 | 36 | 1014.4 |
| 20260507182122 | 66 | 0 | 3.0 | 9.0 | 0.00 | 0.01 | 0.00 | 35 | 1014.3 |
| 20260507181622 | 66 | 0 | 4.0 | 10.0 | 0.00 | 0.01 | 0.00 | 36 | 1014.3 |
| 20260507181122 | 66 | 0 | 5.0 | 10.0 | 0.00 | 0.02 | 0.00 | 36 | 1014.4 |
| 20260507180619 | 65 | 0 | 5.0 | 10.0 | 0.00 | 0.02 | 0.00 | 35 | 1014.4 |
| 20260507180119 | 64 | 0 | 5.0 | 9.0 | 0.00 | 0.03 | 0.00 | 36 | 1014.3 |
| 20260507175620 | 65 | 0 | 4.0 | 9.0 | 0.00 | 0.03 | 0.00 | 36 | 1014.4 |
| 20260507175121 | 65 | 225 | 5.0 | 10.0 | 0.00 | 0.04 | 0.00 | 35 | 1014.4 |
| 20260507174619 | 65 | 0 | 6.0 | 11.0 | 0.00 | 0.04 | 0.00 | 37 | 1014.4 |
| 20260507174119 | 65 | 0 | 6.0 | 11.0 | 0.00 | 0.05 | 0.00 | 36 | 1014.5 |
| 20260507173618 | 65 | 0 | 5.0 | 11.0 | 0.00 | 0.06 | 0.00 | 37 | 1014.5 |
| 20260507173120 | 64 | 0 | 6.0 | 11.0 | 0.00 | 0.07 | 0.00 | 39 | 1014.7 |
| 20260507172850 | 63 | 0 | 6.0 | 10.0 | 0.00 | 0.08 | 0.00 | 41 | 1014.7 |
| 20260507172118 | 62 | 0 | 5.0 | 9.0 | 0.00 | 0.09 | 0.00 | 41 | 1014.9 |
| 20260507171618 | 61 | 0 | 5.0 | 9.0 | 0.00 | 0.10 | 0.00 | 44 | 1015.0 |
| 20260507171117 | 59 | 0 | 4.0 | 9.0 | 0.00 | 0.11 | 0.00 | 50 | 1015.1 |
| 20260507170617 | 58 | 0 | 4.0 | 8.0 | 0.00 | 0.12 | 0.00 | 50 | 1015.2 |
| 20260507170351 | 57 | 0 | 3.0 | 7.0 | 0.00 | 0.13 | 0.00 | 55 | 1015.2 |
| 20260507165617 | 55 | 0 | 1.0 | 5.0 | 0.00 | 0.15 | 0.00 | 56 | 1015.4 |
| 20260507165119 | 54 | 0 | 0.0 | 3.0 | 0.00 | 0.16 | 0.00 | 59 | 1015.6 |
| 20260507164849 | 53 | 0 | 0.0 | 0.0 | 0.00 | 0.16 | 0.00 | 63 | 1015.7 |
| 20260507164118 | 53 | 0 | 0.0 | 0.0 | 0.00 | 0.17 | 0.00 | 62 | 1015.7 |
| 20260507163616 | 52 | 0 | 0.0 | 0.0 | 0.00 | 0.18 | 0.00 | 63 | 1015.7 |
| 20260507163115 | 52 | 0 | 0.0 | 0.0 | 0.00 | 0.19 | 0.00 | 66 | 1015.6 |
| 20260507162845 | 51 | 0 | 0.0 | 1.0 | 0.00 | 0.20 | 0.00 | 65 | 1015.6 |
| 20260507162114 | 51 | 0 | 0.0 | 1.0 | 0.00 | 0.22 | 0.00 | 67 | 1015.6 |
| 20260507161614 | 50 | 0 | 0.0 | 1.0 | 0.00 | 0.23 | 0.00 | 70 | 1015.7 |
| 20260507161109 | 50 | 0 | 0.0 | 1.0 | 0.00 | 0.24 | 0.00 | 68 | 1015.7 |
| 20260507160609 | 49 | 0 | 0.0 | 0.0 | 0.00 | 0.25 | 0.00 | 70 | 1015.7 |
| 20260507160109 | 49 | 0 | 0.0 | 4.0 | 0.00 | 0.26 | 0.00 | 70 | 1015.8 |
| 20260507155607 | 49 | 0 | 1.0 | 4.0 | 0.00 | 0.26 | 0.00 | 71 | 1015.7 |
| 20260507155112 | 48 | 0 | 0.0 | 2.0 | 0.00 | 0.28 | 0.00 | 71 | 1015.8 |
| 20260507155107 | 49 | 0 | 1.0 | 3.0 | 0.00 | 0.27 | 0.00 | 72 | 1015.8 |
| 20260507154105 | 48 | 304 | 0.0 | 2.0 | 0.00 | 0.29 | 0.00 | 71 | 1015.8 |
| 20260507153605 | 48 | 0 | 0.0 | 0.0 | 0.00 | 0.30 | 0.00 | 72 | 1015.9 |
| 20260507153102 | 47 | 0 | 0.0 | 0.0 | 0.00 | 0.31 | 0.00 | 73 | 1015.9 |
| 20260507152603 | 47 | 0 | 0.0 | 0.0 | 0.00 | 0.32 | 0.00 | 73 | 1015.9 |
| 20260507152102 | 46 | 0 | 1.0 | 5.0 | 0.00 | 0.33 | 0.00 | 76 | 1015.9 |
| 20260507151559 | 46 | 0 | 1.0 | 5.0 | 0.00 | 0.34 | 0.00 | 75 | 1015.9 |
| 20260507151059 | 45 | 0 | 0.0 | 5.0 | 0.00 | 0.34 | 0.00 | 76 | 1016.0 |
| 20260507150559 | 45 | 0 | 0.0 | 2.0 | 0.00 | 0.35 | 0.00 | 78 | 1016.0 |
| 20260507150059 | 44 | 0 | 0.0 | 3.0 | 0.00 | 0.36 | 0.00 | 78 | 1016.0 |
| 20260507145600 | 44 | 0 | 1.0 | 3.0 | 0.00 | 0.36 | 0.00 | 80 | 1015.9 |
| 20260507145057 | 43 | 0 | 1.0 | 3.0 | 0.00 | 0.37 | 0.00 | 79 | 1015.9 |
| 20260507144825 | 43 | 0 | 0.0 | 2.0 | 0.00 | 0.37 | 0.00 | 78 | 1015.8 |
| 20260507144054 | 42 | 118 | 0.0 | 2.0 | 0.00 | 0.37 | 0.00 | 78 | 1015.8 |
| 20260507143554 | 42 | 118 | 1.0 | 2.0 | 0.00 | 0.38 | 0.00 | 80 | 1015.8 |
| 20260507143055 | 42 | 0 | 1.0 | 3.0 | 0.00 | 0.38 | 0.00 | 79 | 1015.7 |
| 20260507142551 | 41 | 0 | 0.0 | 3.0 | 0.00 | 0.38 | 0.00 | 80 | 1015.8 |
| 20260507142322 | 40 | 0 | 0.0 | 0.0 | 0.00 | 0.38 | 0.00 | 80 | 1015.7 |
| 20260507141550 | 40 | 0 | 0.0 | 2.0 | 0.00 | 0.39 | 0.00 | 81 | 1015.7 |
| 20260507141048 | 40 | 0 | 0.0 | 2.0 | 0.00 | 0.39 | 0.00 | 82 | 1015.8 |
| 20260507140547 | 39 | 61 | 0.0 | 2.0 | 0.00 | 0.39 | 0.00 | 82 | 1015.8 |
| 20260507140047 | 39 | 0 | 0.0 | 0.0 | 0.00 | 0.39 | 0.00 | 83 | 1015.7 |
| 20260507135546 | 38 | 0 | 0.0 | 2.0 | 0.00 | 0.39 | 0.00 | 84 | 1015.8 |
| 20260507135045 | 38 | 0 | 1.0 | 4.0 | 0.00 | 0.39 | 0.00 | 86 | 1015.8 |
| 20260507134546 | 38 | 0 | 1.0 | 6.0 | 0.00 | 0.39 | 0.00 | 86 | 1015.8 |
| 20260507134316 | 37 | 0 | 2.0 | 6.0 | 0.00 | 0.40 | 0.00 | 87 | 1015.8 |
| 20260507133545 | 37 | 0 | 1.0 | 4.0 | 0.00 | 0.40 | 0.00 | 89 | 1015.7 |
| 20260507133045 | 36 | 92 | 0.0 | 2.0 | 0.00 | 0.40 | 0.00 | 90 | 1015.7 |
| 20260507132546 | 35 | 0 | 0.0 | 2.0 | 0.00 | 0.40 | 0.00 | 91 | 1015.6 |
| 20260507132045 | 35 | 0 | 0.0 | 2.0 | 0.00 | 0.40 | 0.00 | 91 | 1015.6 |
| 20260507131547 | 34 | 116 | 0.0 | 0.0 | 0.00 | 0.40 | 0.00 | 91 | 1015.4 |
| 20260507131046 | 34 | 117 | 0.0 | 2.0 | 0.00 | 0.40 | 0.00 | 91 | 1015.3 |
| 20260507130818 | 34 | 115 | 0.0 | 2.0 | 0.00 | 0.40 | 0.00 | 92 | 1015.3 |
| 20260507130043 | 33 | 115 | 0.0 | 1.0 | 0.00 | 0.40 | 0.00 | 92 | 1015.1 |
| 20260507125544 | 33 | 0 | 0.0 | 0.0 | 0.00 | 0.40 | 0.00 | 92 | 1015.1 |
| 20260507125043 | 33 | 0 | 0.0 | 0.0 | 0.00 | 0.40 | 0.00 | 92 | 1015.1 |
| 20260507124543 | 32 | 0 | 0.0 | 0.0 | 0.00 | 0.40 | 0.00 | 92 | 1015.2 |
| 20260507124045 | 32 | 115 | 0.0 | 1.0 | 0.00 | 0.40 | 0.00 | 92 | 1015.1 |
| 20260507123543 | 32 | 116 | 0.0 | 1.0 | 0.00 | 0.40 | 0.00 | 92 | 1015.1 |
| 20260507123044 | 31 | 0 | 0.0 | 1.0 | 0.00 | 0.40 | 0.00 | 92 | 1015.1 |
| 20260507122545 | 31 | 0 | 0.0 | 2.0 | 0.00 | 0.40 | 0.00 | 91 | 1015.2 |
| 20260507122045 | 31 | 84 | 0.0 | 2.0 | 0.00 | 0.40 | 0.00 | 91 | 1015.0 |
| 20260507121544 | 31 | 83 | 0.0 | 2.0 | 0.00 | 0.40 | 0.00 | 91 | 1015.0 |
| 20260507121045 | 31 | 80 | 1.0 | 2.0 | 0.00 | 0.40 | 0.00 | 91 | 1015.1 |
| 20260507120542 | 30 | 63 | 1.0 | 2.0 | 0.00 | 0.40 | 0.00 | 91 | 1015.1 |
| 20260507120042 | 30 | 0 | 0.0 | 2.0 | 0.00 | 0.40 | 0.00 | 91 | 1015.0 |
| 20260507115313 | 30 | 0 | 0.0 | 2.0 | 0.00 | 0.40 | 0.00 | 91 | 1014.9 |
| 20260507114541 | 30 | 0 | 0.0 | 0.0 | 0.00 | 0.41 | 0.00 | 91 | 1015.0 |
| 20260507114042 | 30 | 0 | 0.0 | 0.0 | 0.00 | 0.41 | 0.00 | 90 | 1015.1 |
| 20260507113542 | 30 | 0 | 0.0 | 0.0 | 0.00 | 0.41 | 0.00 | 90 | 1015.1 |
| 20260507113312 | 30 | 0 | 0.0 | 0.0 | 0.00 | 0.41 | 0.00 | 90 | 1015.1 |
| 20260507112541 | 30 | 0 | 0.0 | 0.0 | 0.00 | 0.41 | 0.00 | 90 | 1015.1 |
| 20260507112041 | 30 | 0 | 0.0 | 0.0 | 0.00 | 0.41 | 0.00 | 90 | 1015.0 |
| 20260507111541 | 30 | 0 | 0.0 | 0.0 | 0.00 | 0.41 | 0.00 | 90 | 1015.2 |
| 20260507111039 | 30 | 0 | 0.0 | 0.0 | 0.00 | 0.41 | 0.00 | 90 | 1015.0 |
| 20260507110540 | 30 | 0 | 0.0 | 0.0 | 0.00 | 0.41 | 0.00 | 90 | 1015.0 |
| 20260507110040 | 30 | 0 | 0.0 | 0.0 | 0.00 | 0.41 | 0.00 | 90 | 1015.0 |
| 20260507105539 | 30 | 0 | 0.0 | 1.0 | 0.00 | 0.41 | 0.00 | 90 | 1015.1 |
| 20260507105040 | 30 | 0 | 0.0 | 1.0 | 0.00 | 0.41 | 0.00 | 90 | 1014.9 |
| 20260507104539 | 30 | 0 | 0.0 | 2.0 | 0.00 | 0.41 | 0.00 | 90 | 1015.0 |
| 20260507104039 | 30 | 0 | 0.0 | 2.0 | 0.00 | 0.41 | 0.00 | 90 | 1015.0 |
| 20260507103540 | 30 | 0 | 0.0 | 1.0 | 0.00 | 0.41 | 0.00 | 90 | 1014.9 |
| 20260507103041 | 30 | 0 | 0.0 | 1.0 | 0.00 | 0.41 | 0.00 | 90 | 1014.9 |
| 20260507102540 | 30 | 0 | 0.0 | 1.0 | 0.00 | 0.41 | 0.00 | 90 | 1014.9 |
| 20260507102040 | 30 | 0 | 0.0 | 1.0 | 0.00 | 0.41 | 0.00 | 90 | 1014.9 |
| 20260507101540 | 30 | 0 | 0.0 | 1.0 | 0.00 | 0.41 | 0.00 | 90 | 1014.9 |
| 20260507101040 | 30 | 0 | 0.0 | 0.0 | 0.00 | 0.41 | 0.00 | 90 | 1015.1 |
| 20260507100544 | 30 | 0 | 0.0 | 2.0 | 0.00 | 0.42 | 0.00 | 90 | 1015.3 |
| 20260507100539 | 30 | 0 | 0.0 | 2.0 | 0.00 | 0.42 | 0.00 | 90 | 1015.2 |
| 20260507095540 | 30 | 0 | 0.0 | 2.0 | 0.00 | 0.42 | 0.00 | 89 | 1015.2 |
| 20260507095041 | 30 | 0 | 0.0 | 2.0 | 0.00 | 0.42 | 0.00 | 89 | 1015.2 |
| 20260507094541 | 30 | 241 | 0.0 | 0.0 | 0.00 | 0.42 | 0.00 | 89 | 1015.4 |
| 20260507094039 | 31 | 241 | 0.0 | 0.0 | 0.00 | 0.42 | 0.00 | 89 | 1015.2 |
| 20260507093540 | 31 | 241 | 0.0 | 0.0 | 0.00 | 0.42 | 0.00 | 89 | 1015.3 |
| 20260507093040 | 31 | 241 | 0.0 | 0.0 | 0.00 | 0.42 | 0.00 | 89 | 1015.4 |
| 20260507092540 | 31 | 241 | 0.0 | 0.0 | 0.00 | 0.42 | 0.00 | 89 | 1015.3 |
| 20260507092311 | 31 | 241 | 0.0 | 0.0 | 0.00 | 0.42 | 0.00 | 89 | 1015.4 |
| 20260507091540 | 31 | 241 | 0.0 | 1.0 | 0.00 | 0.42 | 0.00 | 89 | 1015.3 |
| 20260507091040 | 31 | 241 | 0.0 | 1.0 | 0.00 | 0.42 | 0.00 | 88 | 1015.3 |
| 20260507090541 | 31 | 240 | 0.0 | 0.0 | 0.00 | 0.42 | 0.00 | 88 | 1015.3 |
| 20260507090040 | 31 | 240 | 0.0 | 0.0 | 0.00 | 0.42 | 0.00 | 88 | 1015.4 |
| 20260507085539 | 31 | 240 | 0.0 | 0.0 | 0.00 | 0.42 | 0.00 | 88 | 1015.6 |
| 20260507085038 | 31 | 240 | 0.0 | 0.0 | 0.00 | 0.42 | 0.00 | 88 | 1015.6 |
| 20260507084536 | 31 | 240 | 0.0 | 0.0 | 0.00 | 0.42 | 0.00 | 87 | 1015.6 |
| 20260507084033 | 31 | 240 | 0.0 | 0.0 | 0.00 | 0.42 | 0.00 | 87 | 1015.7 |
| 20260507083533 | 31 | 240 | 0.0 | 0.0 | 0.00 | 0.42 | 0.00 | 87 | 1015.6 |
| 20260507083032 | 31 | 240 | 0.0 | 0.0 | 0.00 | 0.42 | 0.00 | 86 | 1015.6 |
| 20260507082530 | 32 | 240 | 0.0 | 0.0 | 0.00 | 0.42 | 0.00 | 86 | 1015.6 |
| 20260507082027 | 32 | 240 | 0.0 | 0.0 | 0.00 | 0.43 | 0.00 | 86 | 1015.7 |
| 20260507081526 | 32 | 240 | 0.0 | 0.0 | 0.00 | 0.43 | 0.00 | 85 | 1015.7 |
| 20260507081026 | 32 | 240 | 0.0 | 0.0 | 0.00 | 0.43 | 0.00 | 85 | 1015.8 |
| 20260507080525 | 33 | 240 | 0.0 | 0.0 | 0.00 | 0.43 | 0.00 | 84 | 1015.9 |
| 20260507080023 | 33 | 240 | 0.0 | 0.0 | 0.00 | 0.43 | 0.00 | 84 | 1015.9 |
| 20260507075523 | 33 | 240 | 0.0 | 0.0 | 0.00 | 0.43 | 0.00 | 84 | 1015.9 |
| 20260507075023 | 33 | 240 | 0.0 | 0.0 | 0.00 | 0.43 | 0.00 | 84 | 1016.0 |
| 20260507074521 | 33 | 240 | 0.0 | 1.0 | 0.00 | 0.43 | 0.00 | 84 | 1016.0 |
| 20260507074023 | 34 | 240 | 0.0 | 1.0 | 0.00 | 0.43 | 0.00 | 83 | 1016.1 |
| 20260507073751 | 34 | 240 | 0.0 | 1.0 | 0.00 | 0.43 | 0.00 | 83 | 1016.1 |
| 20260507073019 | 34 | 240 | 0.0 | 1.0 | 0.00 | 0.43 | 0.00 | 83 | 1016.1 |
| 20260507072518 | 34 | 240 | 0.0 | 1.0 | 0.00 | 0.43 | 0.00 | 84 | 1016.0 |
| 20260507072018 | 34 | 241 | 0.0 | 1.0 | 0.00 | 0.43 | 0.00 | 85 | 1016.2 |
| 20260507071519 | 34 | 241 | 0.0 | 1.0 | 0.00 | 0.43 | 0.00 | 85 | 1016.1 |
| 20260507071019 | 34 | 241 | 0.0 | 2.0 | 0.00 | 0.43 | 0.00 | 85 | 1016.2 |
| 20260507070518 | 34 | 241 | 0.0 | 2.0 | 0.00 | 0.43 | 0.00 | 85 | 1016.4 |
| 20260507070024 | 34 | 241 | 0.0 | 2.0 | 0.00 | 0.43 | 0.00 | 85 | 1016.4 |
| 20260507070018 | 34 | 241 | 0.0 | 1.0 | 0.00 | 0.43 | 0.00 | 85 | 1016.4 |
| 20260507065014 | 34 | 241 | 0.0 | 2.0 | 0.00 | 0.44 | 0.00 | 85 | 1016.5 |
| 20260507064513 | 34 | 241 | 0.0 | 2.0 | 0.00 | 0.44 | 0.00 | 85 | 1016.5 |
| 20260507064013 | 34 | 240 | 0.0 | 2.0 | 0.00 | 0.44 | 0.00 | 85 | 1016.6 |
| 20260507063745 | 34 | 0 | 0.0 | 0.0 | 0.00 | 0.44 | 0.00 | 85 | 1016.5 |
| 20260507063244 | 34 | 0 | 0.0 | 0.0 | 0.00 | 0.44 | 0.00 | 84 | 1016.5 |
| 20260507062746 | 34 | 0 | 0.0 | 0.0 | 0.00 | 0.44 | 0.00 | 83 | 1016.6 |
| 20260507062010 | 35 | 0 | 0.0 | 0.0 | 0.00 | 0.44 | 0.00 | 83 | 1016.8 |
| 20260507061509 | 35 | 0 | 0.0 | 0.0 | 0.00 | 0.44 | 0.00 | 83 | 1016.8 |
| 20260507061009 | 35 | 0 | 0.0 | 1.0 | 0.00 | 0.44 | 0.00 | 83 | 1016.8 |
| 20260507060745 | 35 | 0 | 0.0 | 1.0 | 0.00 | 0.44 | 0.00 | 83 | 1016.8 |
| 20260507060509 | 35 | 0 | 0.0 | 1.0 | 0.00 | 0.44 | 0.00 | 83 | 1016.9 |
| 20260507055507 | 35 | 0 | 0.0 | 1.0 | 0.00 | 0.44 | 0.44 | 83 | 1016.8 |
| 20260507055236 | 35 | 0 | 0.0 | 2.0 | 0.00 | 0.44 | 0.44 | 83 | 1016.8 |
| 20260507054505 | 35 | 0 | 0.0 | 2.0 | 0.00 | 0.44 | 0.44 | 82 | 1016.9 |
| 20260507054239 | 35 | 0 | 0.0 | 2.0 | 0.00 | 0.44 | 0.44 | 82 | 1016.9 |
| 20260507053507 | 35 | 0 | 0.0 | 2.0 | 0.00 | 0.44 | 0.44 | 81 | 1017.1 |
| 20260507053007 | 35 | 0 | 0.0 | 3.0 | 0.00 | 0.44 | 0.44 | 81 | 1017.2 |
| 20260507052736 | 35 | 0 | 0.0 | 3.0 | 0.00 | 0.44 | 0.44 | 81 | 1017.2 |
| 20260507052006 | 35 | 0 | 1.0 | 3.0 | 0.00 | 0.44 | 0.44 | 81 | 1017.1 |
| 20260507051506 | 35 | 0 | 1.0 | 3.0 | 0.00 | 0.44 | 0.44 | 80 | 1017.2 |
| 20260507051004 | 35 | 0 | 1.0 | 3.0 | 0.00 | 0.45 | 0.44 | 80 | 1017.3 |
| 20260507050503 | 35 | 0 | 1.0 | 3.0 | 0.00 | 0.45 | 0.44 | 80 | 1017.4 |
| 20260507050003 | 36 | 200 | 1.0 | 3.0 | 0.00 | 0.45 | 0.44 | 80 | 1017.5 |
| 20260507045502 | 36 | 202 | 1.0 | 3.0 | 0.00 | 0.45 | 0.44 | 80 | 1017.6 |
| 20260507045001 | 35 | 220 | 1.0 | 3.0 | 0.00 | 0.45 | 0.44 | 80 | 1017.8 |
| 20260507044503 | 35 | 0 | 1.0 | 3.0 | 0.00 | 0.45 | 0.44 | 80 | 1017.9 |
| 20260507044001 | 36 | 213 | 1.0 | 3.0 | 0.00 | 0.45 | 0.44 | 79 | 1017.9 |
| 20260507043459 | 36 | 0 | 0.0 | 3.0 | 0.00 | 0.45 | 0.44 | 79 | 1018.0 |
| 20260507042959 | 36 | 193 | 0.0 | 2.0 | 0.00 | 0.45 | 0.44 | 79 | 1018.1 |
| 20260507042458 | 36 | 0 | 0.0 | 2.0 | 0.00 | 0.45 | 0.44 | 79 | 1018.0 |
| 20260507042000 | 36 | 0 | 0.0 | 2.0 | 0.00 | 0.45 | 0.44 | 79 | 1018.2 |
| 20260507041457 | 36 | 202 | 1.0 | 3.0 | 0.00 | 0.45 | 0.44 | 79 | 1018.3 |
| 20260507040957 | 36 | 163 | 1.0 | 3.0 | 0.00 | 0.45 | 0.44 | 79 | 1018.1 |
| 20260507040458 | 36 | 200 | 0.0 | 2.0 | 0.00 | 0.45 | 0.44 | 79 | 1018.2 |
| 20260507035958 | 36 | 0 | 0.0 | 2.0 | 0.00 | 0.45 | 0.44 | 79 | 1018.1 |
| 20260507035458 | 36 | 0 | 1.0 | 2.0 | 0.00 | 0.45 | 0.44 | 78 | 1018.2 |
| 20260507034957 | 36 | 204 | 1.0 | 2.0 | 0.00 | 0.46 | 0.44 | 78 | 1018.2 |
| 20260507034457 | 36 | 207 | 0.0 | 3.0 | 0.00 | 0.46 | 0.44 | 78 | 1018.2 |
| 20260507033956 | 36 | 198 | 0.0 | 3.0 | 0.00 | 0.46 | 0.44 | 77 | 1018.2 |
| 20260507033456 | 36 | 192 | 0.0 | 2.0 | 0.00 | 0.46 | 0.44 | 77 | 1018.3 |
| 20260507032956 | 37 | 192 | 0.0 | 2.0 | 0.00 | 0.46 | 0.44 | 76 | 1018.2 |
| 20260507032727 | 37 | 196 | 0.0 | 2.0 | 0.00 | 0.46 | 0.44 | 76 | 1018.3 |
| 20260507031955 | 37 | 196 | 0.0 | 2.0 | 0.00 | 0.46 | 0.44 | 75 | 1018.3 |
| 20260507031455 | 37 | 196 | 0.0 | 2.0 | 0.00 | 0.46 | 0.44 | 74 | 1018.4 |
| 20260507031226 | 37 | 196 | 1.0 | 2.0 | 0.00 | 0.46 | 0.44 | 74 | 1018.3 |
| 20260507030727 | 38 | 202 | 0.0 | 2.0 | 0.00 | 0.47 | 0.44 | 74 | 1018.3 |
| 20260507030228 | 38 | 206 | 0.0 | 2.0 | 0.00 | 0.47 | 0.44 | 74 | 1018.3 |
| 20260507025457 | 38 | 209 | 1.0 | 2.0 | 0.00 | 0.47 | 0.44 | 73 | 1018.2 |
| 20260507024955 | 38 | 212 | 1.0 | 2.0 | 0.00 | 0.47 | 0.44 | 72 | 1018.2 |
| 20260507024455 | 38 | 215 | 1.0 | 2.0 | 0.00 | 0.47 | 0.44 | 71 | 1018.3 |
| 20260507023955 | 38 | 217 | 1.0 | 2.0 | 0.00 | 0.48 | 0.44 | 71 | 1018.4 |
| 20260507023457 | 39 | 192 | 1.0 | 3.0 | 0.00 | 0.48 | 0.44 | 70 | 1018.2 |
| 20260507023227 | 39 | 0 | 1.0 | 3.0 | 0.00 | 0.48 | 0.44 | 69 | 1018.3 |
| 20260507022455 | 39 | 201 | 1.0 | 3.0 | 0.00 | 0.48 | 0.44 | 69 | 1018.2 |
| 20260507022225 | 40 | 205 | 1.0 | 3.0 | 0.00 | 0.48 | 0.44 | 68 | 1018.2 |
| 20260507021725 | 40 | 0 | 2.0 | 4.0 | 0.00 | 0.48 | 0.44 | 67 | 1018.2 |
| 20260507020954 | 41 | 0 | 2.0 | 4.0 | 0.00 | 0.49 | 0.44 | 66 | 1018.2 |
| 20260507020453 | 41 | 0 | 2.0 | 4.0 | 0.00 | 0.49 | 0.44 | 66 | 1018.1 |
| 20260507020222 | 42 | 0 | 2.0 | 4.0 | 0.00 | 0.49 | 0.44 | 64 | 1018.1 |
| 20260507015448 | 42 | 0 | 2.0 | 5.0 | 0.00 | 0.49 | 0.44 | 63 | 1018.1 |
| 20260507014948 | 43 | 213 | 1.0 | 5.0 | 0.00 | 0.50 | 0.44 | 61 | 1018.2 |
| 20260507014447 | 44 | 214 | 1.0 | 5.0 | 0.00 | 0.50 | 0.44 | 61 | 1018.2 |
| 20260507013947 | 44 | 213 | 2.0 | 7.0 | 0.00 | 0.50 | 0.44 | 59 | 1018.2 |
| 20260507013447 | 45 | 0 | 3.0 | 7.0 | 0.00 | 0.50 | 0.44 | 58 | 1018.1 |
| 20260507012948 | 46 | 211 | 3.0 | 7.0 | 0.00 | 0.51 | 0.44 | 56 | 1018.2 |
| 20260507012720 | 46 | 215 | 3.0 | 7.0 | 0.00 | 0.51 | 0.44 | 56 | 1018.1 |
| 20260507012221 | 46 | 0 | 4.0 | 8.0 | 0.00 | 0.51 | 0.44 | 56 | 1018.1 |
| 20260507011449 | 46 | 196 | 4.0 | 8.0 | 0.00 | 0.51 | 0.44 | 56 | 1018.1 |
| 20260507010952 | 46 | 0 | 4.0 | 9.0 | 0.00 | 0.51 | 0.44 | 57 | 1018.1 |
| 20260507010947 | 46 | 192 | 4.0 | 8.0 | 0.00 | 0.51 | 0.44 | 56 | 1018.1 |
| 20260507005945 | 47 | 188 | 5.0 | 9.0 | 0.00 | 0.51 | 0.44 | 57 | 1018.1 |
| 20260507005718 | 47 | 213 | 4.0 | 8.0 | 0.00 | 0.51 | 0.44 | 56 | 1018.0 |
| 20260507004947 | 47 | 0 | 4.0 | 8.0 | 0.00 | 0.51 | 0.44 | 55 | 1018.1 |